Weather History for Kiana, AK

Change the Weather History Date:

Tuesday, December 4, 2012

  Actual Average (PASK) Record (PASK)
Temperature  
Mean Temperature -18 °F -  
Max Temperature -20 °F 3 °F 35 °F (2002)
Min Temperature -22 °F -4 °F -40 °F (2003)
Degree Days  
Heating Degree Days 84    
Moisture  
Dew Point -25 °F    
Average Humidity 76    
Maximum Humidity 82    
Minimum Humidity 73    
Precipitation  
Precipitation 0.00 in - - ()
Sea Level Pressure  
Sea Level Pressure 30.34 in    
Wind  
Wind Speed 3 mph (NNW)    
Max Wind Speed 12 mph    
Max Gust Speed -    
Visibility 10 miles    
Events      
Averages and records for this station are not official NWS values.
T = Trace of Precipitation, MM = Missing Value Source: NWS Daily Summary

Daily Weather History Graph

Daily Weather History Graph

Search for Another Location

Airport:

Trip Planner

Search our weather history database for the weather conditions in past years. The results will help you decide how hot, cold, wet, or windy it might be!

Date:

Astronomy

Dec. 04, 2012 Rise Set
Actual Time 12:04 PM AKST 2:59 PM AKST
Civil Twilight 10:23 AM AKST 4:40 PM AKST
Nautical Twilight 9:04 AM AKST 5:59 PM AKST
Astronomical Twilight 7:58 AM AKST 7:05 PM AKST
Moon 11:29 PM AKST (12/4) 1:44 PM AKST (12/4)
Length of Visible Light 6h 17m
Length of Day
2h 54m
Waning Gibbous, 68% of the Moon is Illuminated
Dec 4
Waning Gibbous
Dec 6
Last Quarter
Dec 12
New
Dec 19
First Quarter
Dec 28
Full

Hourly Weather History & Observations

Time (AKST) Temp. Windchill Dew Point Humidity Pressure Visibility Wind Dir Wind Speed Gust Speed Precip Events Conditions
12:01 AM -18.0 °F -30.9 °F -23.1 °F 78% 30.30 in 10.0 mi NE 4.6 mph - N/A   Clear
1:01 AM -18.0 °F -39.7 °F -23.1 °F 78% 30.29 in 10.0 mi NNW 11.5 mph - N/A   Clear
2:01 AM -18.9 °F -32.0 °F -24.0 °F 78% 30.30 in 10.0 mi NNW 4.6 mph - N/A   Clear
3:01 AM -20.0 °F -30.7 °F -25.1 °F 78% 30.44 in 10.0 mi North 3.5 mph - N/A   Clear
4:01 AM -18.9 °F - -24.0 °F 78% 30.43 in 10.0 mi Calm Calm - N/A   Clear
5:01 AM -18.0 °F -30.9 °F -24.0 °F 74% 30.42 in 10.0 mi NW 4.6 mph - N/A   Clear
6:01 AM -20.9 °F - -27.0 °F 73% 30.41 in 10.0 mi Calm Calm - N/A   Clear
7:01 AM -18.9 °F -32.0 °F -24.0 °F 78% 30.39 in 10.0 mi NNW 4.6 mph - N/A   Clear
8:01 AM -17.0 °F -27.2 °F -23.1 °F 74% 30.38 in 10.0 mi NNW 3.5 mph - N/A   Clear
9:01 AM -18.9 °F - -25.1 °F 74% 30.38 in 10.0 mi Calm Calm - N/A   Clear
10:01 AM -18.9 °F - -25.1 °F 74% 30.36 in 10.0 mi Calm Calm - N/A   Clear
11:01 AM -18.9 °F -32.0 °F -25.1 °F 74% 30.35 in 10.0 mi NW 4.6 mph - N/A   Clear
12:01 PM -17.0 °F - -22.0 °F 78% 30.34 in 10.0 mi Calm Calm - N/A   Clear
1:01 PM -15.0 °F -25.0 °F -18.9 °F 82% 30.33 in 10.0 mi WNW 3.5 mph - N/A   Clear
2:01 PM -17.0 °F - -23.1 °F 74% 30.34 in 8.0 mi Calm Calm - N/A   Clear
3:01 PM -17.0 °F - -23.1 °F 74% 30.33 in 9.0 mi Calm Calm - N/A   Clear
4:01 PM -20.9 °F -31.7 °F -26.0 °F 77% 30.32 in 9.0 mi SE 3.5 mph - N/A   Clear
5:01 PM -20.9 °F -31.7 °F -26.0 °F 77% 30.32 in 9.0 mi East 3.5 mph - N/A   Clear
6:01 PM -20.0 °F - -25.1 °F 78% 30.31 in 10.0 mi Calm Calm - N/A   Clear
7:01 PM -20.9 °F - -26.0 °F 77% 30.30 in 10.0 mi Calm Calm - N/A   Clear
8:01 PM -22.0 °F -35.6 °F -27.9 °F 74% 30.30 in 10.0 mi NNW 4.6 mph - N/A   Clear
9:01 PM -20.9 °F - -27.0 °F 73% 30.31 in 10.0 mi Calm Calm - N/A   Clear
10:01 PM -20.9 °F - -27.0 °F 73% 30.31 in 10.0 mi Calm Calm - N/A   Clear
11:01 PM -20.9 °F - -27.0 °F 73% 30.30 in 10.0 mi Calm Calm - N/A   Clear